Location: Unspecified
(0.0000°N, 0.0000°E)
Time: 16:38:50
(UTC+00:00)

CHUBUSAT 2 - Visible Passes

Search period start: 13 December 2017 00:00
Search period end: 23 December 2017 00:00
Orbit: 557 x 577 km, 31.0° (Epoch: 12 December)

Date Brightness Start Highest point End Pass type
(mag) Time Alt. Az. Time Alt. Az. Time Alt. Az.
13 Dec ? 20:10:21 10° S 20:10:35 11° S 20:10:35 11° S visible
14 Dec ? 20:08:26 10° SSW 20:09:42 16° S 20:09:42 16° S visible
15 Dec ? 20:06:57 10° SW 20:08:51 23° SSW 20:08:51 23° SSW visible
16 Dec ? 18:27:13 10° SSE 18:28:12 11° SSE 18:29:10 10° SE visible
16 Dec ? 20:05:45 10° SW 20:08:03 30° SW 20:08:03 30° SW visible
17 Dec ? 18:24:29 10° S 18:27:21 17° SSE 18:30:13 10° ESE visible
17 Dec ? 20:04:47 10° WSW 20:07:17 33° WSW 20:07:17 33° WSW visible
18 Dec ? 18:22:46 10° SSW 18:26:29 27° SSE 18:30:09 10° E visible
18 Dec ? 20:04:05 10° WSW 20:06:33 28° W 20:06:33 28° W visible
19 Dec ? 18:21:23 10° SW 18:25:33 46° SSE 18:29:40 10° ENE visible
19 Dec ? 20:03:41 10° W 20:05:50 21° WNW 20:05:50 21° WNW visible
20 Dec ? 18:20:16 10° SW 18:24:37 81° SE 18:28:54 10° ENE visible
20 Dec ? 20:03:47 10° WNW 20:05:08 14° NW 20:05:08 14° NW visible
21 Dec ? 04:40:19 12° N 04:42:19 16° NNE 04:44:55 10° ENE visible
21 Dec ? 18:19:24 10° WSW 18:23:40 58° NNW 18:27:54 10° NE visible
22 Dec ? 04:39:37 19° N 04:41:26 25° NNE 04:44:58 10° E visible
